[[{"header":{"parameterUnit":"m.s-1","parameterCategory":1,"la1":30.2991,"la2":30.254,"lo1":-89.0895,"lo2":-89.0444,"dy":0.0017,"dx":0.0017,"nx":28,"ny":28,"refTime":"2025-04-27T03:00:00:Z","depth":0,"parameterNumber":2,"parameterNumberName":"U-component_of_WINDS"},"data":[0,0,0,0,0,0,0,0,0,0,0,0,0,0,0,0,0,0,0,0,0,0,0,0,0,0,0,0,0,0,0,0,0,0,0,0,0,0,0,0,0,0,0,0,0,0,0,0,0,0,0,0,0,0,0,0,0,0,-1.6626,-1.6626,0,-1.6643,-1.6643,-1.6643,-1.6621,-1.6621,-1.662,-1.6619,-1.6637,-1.6638,-1.6639,0,0,0,0,0,0,0,0,0,0,0,0,0,-1.6576,-1.6577,-1.6626,-1.6626,-1.6627,-1.6643,-1.6643,-1.6643,-1.6622,-1.6621,-1.662,-1.6619,-1.6637,-1.6638,-1.6639,0,0,0,0,0,0,0,0,0,0,0,0,0,-1.6596,-1.6577,-1.6626,-1.6618,-1.6617,-1.6643,-1.6643,-1.6644,-1.6622,-1.6621,-1.6619,-1.6618,-1.6636,-1.6638,-1.664,-1.6675,0,0,-1.6645,-1.6646,0,0,0,0,0,0,0,0,-1.6594,-1.6597,-1.6619,-1.6618,-1.6618,-1.6629,-1.6632,-1.6654,-1.6622,-1.662,-1.6619,-1.6618,-1.6635,-1.6637,-1.6643,-1.6676,-1.6677,-1.6645,-1.6647,-1.6647,-1.6648,0,0,0,0,0,0,0,-1.6593,-1.6597,-1.6633,-1.6619,-1.6618,-1.6613,-1.6615,-1.6636,-1.6634,-1.662,-1.6618,-1.6621,-1.6635,-1.6641,-1.6643,-1.6677,-1.6645,-1.6647,-1.6648,-1.6649,-1.674,-1.6741,0,0,0,0,0,0,-1.6593,-1.6596,-1.6632,-1.6633,-1.6603,-1.6615,-1.6617,-1.6626,-1.6634,-1.6634,-1.6622,-1.662,-1.6639,-1.6641,-1.6644,-1.6685,-1.6647,-1.6649,-1.665,-1.6739,-1.674,-1.6742,0,0,0,0,0,0,-1.6592,-1.6596,-1.6632,-1.6614,-1.6618,-1.6617,-1.6628,-1.6627,-1.6634,-1.6635,-1.6635,-1.6629,-1.6638,-1.6641,-1.6667,-1.6686,-1.665,-1.6652,-1.6737,-1.6739,-1.6741,-1.6769,0,0,0,0,0,0,-1.659,-1.6596,-1.6609,-1.6614,-1.6619,-1.6655,-1.6629,-1.6629,-1.6637,-1.6634,-1.6641,-1.6642,-1.6637,-1.6665,-1.6669,-1.6688,-1.6653,-1.6735,-1.6738,-1.674,-1.6767,-1.6772,-1.6777,0,0,0,0,0,-1.6588,-1.6617,-1.661,-1.6614,-1.6636,-1.6656,-1.6659,-1.6653,-1.6639,-1.6652,-1.6653,-1.6641,-1.6683,-1.6668,-1.6672,-1.6692,-1.6734,-1.6737,-1.674,-1.6765,-1.6771,-1.6777,0,0,0,0,0,0,-1.6613,-1.6617,-1.661,-1.664,-1.6648,-1.6652,-1.6669,-1.666,-1.6672,-1.6669,-1.6661,-1.6663,-1.6691,-1.6694,-1.6677,-1.6726,-1.6706,-1.671,-1.6723,-1.673,-1.6734,-1.6733,-1.6654,0,0,0,0,0,-1.6623,-1.6638,-1.6641,-1.6668,-1.6672,-1.667,-1.6678,-1.6673,-1.6681,-1.6684,-1.6687,-1.6695,-1.671,-1.672,-1.6734,-1.6767,-1.6769,-1.6783,-1.6788,-1.6792,-1.6795,-1.6813,-1.682,-1.6751,-1.6751,-1.6751,0,0,-1.6641,-1.6645,-1.6656,-1.6673,-1.6678,-1.6695,-1.6673,-1.6691,-1.6704,-1.6687,-1.6712,-1.6714,-1.6723,-1.6753,-1.6766,-1.6756,-1.6815,-1.6796,-1.6799,-1.68,-1.6817,-1.6824,-1.6829,-1.6753,-1.6753,-1.6753,0,0,-1.6684,-1.6689,-1.6712,-1.6718,-1.6726,-1.6724,-1.673,-1.6736,-1.6736,-1.6761,-1.6749,-1.6764,-1.679,-1.6796,-1.6803,-1.6849,-1.6839,-1.6854,-1.688,-1.6897,-1.6902,-1.6907,-1.6923,-1.6929,-1.6858,-1.6858,-1.6858,0,-1.6707,-1.6731,-1.6725,-1.6744,-1.6752,-1.6738,-1.6761,-1.6767,-1.6779,-1.6785,-1.6774,-1.6806,-1.6811,-1.6842,-1.6854,-1.686,-1.6866,-1.6853,-1.6902,-1.6907,-1.6911,-1.6926,-1.6933,-1.6859,-1.6859,-1.6859,-1.6859,0,-1.6758,-1.6776,-1.6793,-1.6805,-1.6815,-1.6837,-1.6833,-1.6844,-1.6839,-1.6838,-1.6864,-1.6869,-1.6884,-1.6891,-1.6886,-1.6922,-1.6915,-1.6903,-1.6883,-1.6919,-1.6934,-1.694,-1.6862,-1.6861,-1.6861,-1.686,0,0,-1.6817,-1.6825,-1.6832,-1.6837,-1.6846,-1.6859,-1.688,-1.6894,-1.6903,-1.6913,-1.693,-1.6953,-1.6942,-1.6949,-1.6945,-1.696,-1.6996,-1.6946,-1.6946,-1.6955,-1.7036,-1.7044,-1.7051,-1.6989,-1.699,-1.6991,-1.7035,0,-1.686,-1.6895,-1.689,-1.6924,-1.694,-1.6927,-1.6945,-1.6953,-1.6953,-1.6967,-1.6968,-1.6983,-1.6968,-1.6972,-1.6987,-1.6988,-1.7012,-1.6985,-1.7005,-1.7006,-1.7003,-1.7059,-1.7068,-1.7109,-1.704,-1.7041,-1.7042,0,-1.6914,-1.6925,-1.6961,-1.6967,-1.6973,-1.699,-1.7002,-1.7016,-1.7024,-1.7023,-1.7032,-1.7025,-1.7046,-1.7025,-1.7054,-1.7036,-1.7044,-1.7046,-1.7048,-1.7049,-1.7026,-1.7061,-1.7121,-1.7127,-1.7051,-1.705,-1.7049,0,-1.6953,-1.6977,-1.7001,-1.7006,-1.7014,-1.7026,-1.7029,-1.7036,-1.7045,-1.7056,-1.7062,-1.7076,-1.7083,-1.7094,-1.7091,-1.7076,-1.712,-1.71,-1.712,-1.712,-1.713,-1.7129,-1.7192,-1.7136,-1.7136,-1.7136,-1.7135,0,-1.7001,-1.7023,-1.7019,-1.7034,-1.7059,-1.7053,-1.7078,-1.708,-1.7086,-1.7101,-1.7091,-1.7106,-1.7101,-1.7115,-1.7113,-1.7137,-1.7141,-1.7141,-1.714,-1.7141,-1.7141,-1.7146,-1.7143,-1.7137,-1.7137,-1.7136,-1.7136,0,-1.7048,-1.7046,-1.7072,-1.7077,-1.7079,-1.7097,-1.7101,-1.7115,-1.7115,-1.7135,-1.7139,-1.7139,-1.7156,-1.7153,-1.7172,-1.717,-1.7201,-1.7196,-1.7198,-1.7197,-1.7217,-1.7215,-1.7285,-1.7294,-1.7232,-1.7233,-1.7233,0,-1.7079,-1.7095,-1.7102,-1.7112,-1.7116,-1.7132,-1.7141,-1.7136,-1.7145,-1.7156,-1.7169,-1.7185,-1.7197,-1.7224,-1.7226,-1.724,-1.7236,-1.7259,-1.7238,-1.7239,-1.7236,-1.7235,-1.7236,-1.7263,-1.7264,-1.7265,-1.7265,0,-1.7133,-1.7131,-1.7144,-1.7157,-1.7168,-1.7178,-1.7187,-1.7196,-1.7192,-1.7203,-1.722,-1.7229,-1.7248,-1.7264,-1.7277,-1.7281,-1.7273,-1.7272,-1.7277,-1.7279,-1.7279,-1.7279,-1.7209,-1.727,-1.727,-1.7269,-1.7269,-1.7269,-1.7173,-1.7187,-1.7194,-1.7209,-1.7215,-1.7224,-1.7238,-1.7239,-1.7253,-1.7268,-1.7264,-1.7283,-1.7291,-1.7308,-1.7313,-1.7328,-1.7319,-1.7327,-1.7329,-1.7331,-1.7334,-1.7277,-1.7331,-1.733,-1.733,-1.733,-1.733,0,-1.7226,-1.723,-1.7244,-1.7257,-1.7269,-1.7259,-1.7269,-1.728,-1.7296,-1.7304,-1.7316,-1.7336,-1.7351,-1.7354,-1.7368,-1.738,-1.7376,-1.7384,-1.7382,-1.7384,-1.7341,-1.7334,-1.7386,-1.7386,-1.7386,-1.7386,-1.7386,-1.7386,-1.7255,-1.7279,-1.7278,-1.7305,-1.7309,-1.7327,-1.7333,-1.7341,-1.7348,-1.7369,-1.7382,-1.7384,-1.739,-1.7405,-1.7418,-1.7419,-1.7424,-1.7433,-1.7432,-1.7392,-1.7387,-1.7381,-1.7375,-1.7435,-1.7435,-1.7474,-1.7474,-1.7475]},{"header":{"parameterUnit":"m.s-1","parameterCategory":1,"la1":30.2991,"la2":30.254,"lo1":-89.0895,"lo2":-89.0444,"dy":0.0017,"dx":0.0017,"nx":28,"ny":28,"refTime":"2025-04-27T03:00:00:Z","depth":0,"parameterNumber":3,"parameterNumberName":"V-component_of_WINDS"},"data":[0,0,0,0,0,0,0,0,0,0,0,0,0,0,0,0,0,0,0,0,0,0,0,0,0,0,0,0,0,0,0,0,0,0,0,0,0,0,0,0,0,0,0,0,0,0,0,0,0,0,0,0,0,0,0,0,0,0,2.6949,2.6949,0,2.6982,2.6982,2.6983,2.6963,2.6962,2.6961,2.696,2.6992,2.6994,2.6995,0,0,0,0,0,0,0,0,0,0,0,0,0,2.6866,2.6868,2.6949,2.6949,2.695,2.6982,2.6982,2.6983,2.6963,2.6962,2.6961,2.696,2.6991,2.6994,2.6996,0,0,0,0,0,0,0,0,0,0,0,0,0,2.6901,2.6868,2.6949,2.6944,2.6944,2.6982,2.6982,2.6983,2.6964,2.6962,2.6961,2.6959,2.6991,2.6993,2.6996,2.704,0,0,2.7004,2.7005,0,0,0,0,0,0,0,0,2.6899,2.6904,2.6944,2.6944,2.6944,2.6967,2.6965,2.7002,2.6964,2.6956,2.696,2.6959,2.6985,2.6988,2.6997,2.7041,2.7043,2.7004,2.7006,2.7007,2.7007,0,0,0,0,0,0,0,2.6897,2.6903,2.6962,2.6945,2.6945,2.6939,2.6943,2.6972,2.6978,2.6957,2.6955,2.696,2.6984,2.6995,2.6998,2.7043,2.7004,2.7006,2.7008,2.7009,2.7126,2.7128,0,0,0,0,0,0,2.6895,2.6901,2.6961,2.6963,2.6918,2.6942,2.6946,2.6961,2.6977,2.6979,2.6961,2.6959,2.6991,2.6995,2.6999,2.7052,2.7007,2.7009,2.7011,2.7125,2.7127,2.7128,0,0,0,0,0,0,2.6893,2.6901,2.6959,2.6931,2.6939,2.6945,2.6962,2.6962,2.6973,2.6981,2.6981,2.697,2.699,2.6995,2.703,2.7053,2.701,2.7013,2.7123,2.7125,2.7128,2.7158,0,0,0,0,0,0,2.6891,2.69,2.6917,2.6932,2.694,2.6991,2.6964,2.6964,2.6977,2.6975,2.699,2.6991,2.6989,2.7026,2.7033,2.7055,2.7015,2.7121,2.7124,2.7127,2.7155,2.7162,2.7167,0,0,0,0,0,2.6888,2.6924,2.6918,2.6926,2.6962,2.6992,2.6997,2.6995,2.6979,2.6996,2.7002,2.699,2.7049,2.703,2.7037,2.7061,2.712,2.7123,2.7127,2.7153,2.716,2.7167,0,0,0,0,0,0,2.691,2.6926,2.6919,2.6961,2.6976,2.6989,2.701,2.7003,2.7022,2.7018,2.7015,2.7018,2.7055,2.7061,2.704,2.7105,2.7082,2.7087,2.7099,2.7107,2.7112,2.711,2.7017,0,0,0,0,0,2.692,2.6945,2.6956,2.6992,2.7,2.7004,2.7017,2.7015,2.7029,2.7035,2.7043,2.7057,2.7079,2.7093,2.7113,2.7156,2.7159,2.7176,2.7182,2.7187,2.7191,2.7215,2.7222,2.714,2.714,2.714,0,0,2.6941,2.6952,2.6967,2.6997,2.7008,2.7032,2.7009,2.7036,2.7054,2.7039,2.7073,2.7079,2.7095,2.7134,2.7152,2.7141,2.7214,2.7191,2.7195,2.7197,2.7219,2.7227,2.7234,2.7143,2.7142,2.7142,0,0,2.699,2.7001,2.7033,2.7045,2.7062,2.7065,2.7073,2.7087,2.7091,2.7126,2.7115,2.7136,2.7174,2.7185,2.7196,2.7252,2.7242,2.7259,2.7288,2.7311,2.7318,2.7324,2.7344,2.7351,2.7263,2.7263,2.7263,0,2.7013,2.7051,2.7049,2.7078,2.7091,2.708,2.7111,2.7122,2.7145,2.7154,2.7142,2.7189,2.7199,2.7241,2.7255,2.7264,2.7272,2.7257,2.7317,2.7323,2.7328,2.7347,2.7355,2.7265,2.7265,2.7264,2.7264,0,2.7078,2.7105,2.7128,2.7152,2.7167,2.7197,2.72,2.7216,2.7212,2.7217,2.7252,2.7263,2.7286,2.7296,2.7292,2.7338,2.7331,2.7318,2.7294,2.7338,2.7356,2.7363,2.7268,2.7267,2.7266,2.7266,0,0,2.7142,2.7166,2.7175,2.7186,2.7204,2.7224,2.7254,2.7277,2.7291,2.7307,2.7332,2.7365,2.7353,2.7365,2.7363,2.7383,2.7427,2.7368,2.7368,2.7379,2.7479,2.7489,2.7497,2.7421,2.7423,2.7424,2.7478,0,2.7194,2.7246,2.7246,2.7294,2.7318,2.7308,2.7334,2.7348,2.7353,2.7374,2.7378,2.7402,2.7385,2.7392,2.7412,2.7418,2.7447,2.7414,2.7443,2.7445,2.744,2.7507,2.7517,2.7568,2.7485,2.7486,2.7487,0,2.726,2.728,2.7331,2.7347,2.7358,2.7381,2.7403,2.7423,2.7439,2.7441,2.7455,2.745,2.748,2.7456,2.7496,2.7474,2.7486,2.7491,2.7492,2.7495,2.7468,2.7511,2.7584,2.7591,2.7498,2.7497,2.7496,0,2.7303,2.7342,2.7378,2.7387,2.7407,2.7424,2.7432,2.7447,2.7462,2.748,2.749,2.7511,2.7523,2.754,2.7541,2.7523,2.7582,2.7558,2.7584,2.7584,2.7597,2.7596,2.7673,2.7605,2.7605,2.7604,2.7604,0,2.736,2.7392,2.7397,2.7419,2.7454,2.7454,2.7488,2.7495,2.7509,2.7532,2.7524,2.7545,2.7545,2.7567,2.7567,2.7601,2.7606,2.7609,2.7608,2.7609,2.7609,2.7617,2.7614,2.7606,2.7606,2.7606,2.7605,0,2.7413,2.7418,2.7456,2.7472,2.7477,2.7502,2.7516,2.7536,2.7541,2.757,2.7577,2.7584,2.7609,2.7612,2.764,2.7641,2.7682,2.7678,2.7677,2.7676,2.7703,2.77,2.7787,2.7798,2.7723,2.7724,2.7724,0,2.7449,2.7474,2.7493,2.7508,2.7518,2.7543,2.7558,2.7558,2.7574,2.7595,2.7613,2.7638,2.7658,2.7699,2.7706,2.7728,2.7725,2.7754,2.7728,2.7729,2.7726,2.7724,2.7727,2.7759,2.7759,2.776,2.7761,0,2.7514,2.7515,2.7538,2.7561,2.758,2.7598,2.7615,2.7628,2.7631,2.7649,2.7676,2.7691,2.7722,2.7746,2.7769,2.7777,2.7769,2.7769,2.7776,2.7777,2.7776,2.7777,2.7691,2.7767,2.7766,2.7766,2.7765,2.7765,2.756,2.7581,2.7598,2.7624,2.7637,2.7653,2.7674,2.7682,2.7704,2.773,2.7728,2.7758,2.7773,2.7803,2.7813,2.7835,2.7826,2.7836,2.7839,2.7841,2.7844,2.7773,2.7839,2.7839,2.7839,2.7839,2.7839,0,2.7624,2.7635,2.7658,2.7683,2.7703,2.7695,2.7714,2.7731,2.7758,2.7773,2.7793,2.7824,2.7848,2.7858,2.7881,2.7898,2.7895,2.7904,2.7903,2.7905,2.7852,2.7843,2.7906,2.7906,2.7906,2.7906,2.7906,2.7906,2.766,2.7696,2.7699,2.7742,2.7752,2.7782,2.7793,2.7808,2.7821,2.7856,2.7876,2.7883,2.7896,2.7921,2.7943,2.7945,2.7954,2.7965,2.7965,2.7915,2.7908,2.7902,2.7894,2.7967,2.7967,2.8017,2.8017,2.8017]}]]